[[{"header":{"parameterUnit":"m.s-1","parameterCategory":1,"la1":30.2991,"la2":30.254,"lo1":-89.0895,"lo2":-89.0444,"dy":0.0017,"dx":0.0017,"nx":28,"ny":28,"refTime":"2025-12-28T09:00:00:Z","depth":0,"parameterNumber":2,"parameterNumberName":"U-component_of_WINDS"},"data":[0,0,0,0,0,0,0,0,0,0,0,0,0,0,0,0,0,0,0,0,0,0,0,0,0,0,0,0,0,0,0,0,0,0,0,0,0,0,0,0,0,0,0,0,0,0,0,0,0,0,0,0,0,0,0,0,0,0,1.02,1.02,0,1.0165,1.0165,1.0164,1.0156,1.0156,1.0156,1.0156,1.0117,1.0116,1.0115,0,0,0,0,0,0,0,0,0,0,0,0,0,1.0258,1.0257,1.02,1.02,1.0199,1.0165,1.0165,1.0164,1.0156,1.0156,1.0156,1.0157,1.0118,1.0116,1.0115,0,0,0,0,0,0,0,0,0,0,0,0,0,1.0229,1.0257,1.02,1.0191,1.019,1.0165,1.0165,1.0164,1.0156,1.0156,1.0156,1.0157,1.0118,1.0116,1.0114,1.0095,0,0,1.0109,1.0108,0,0,0,0,0,0,0,0,1.0231,1.0227,1.0193,1.0192,1.019,1.0165,1.0171,1.0141,1.0156,1.0169,1.0156,1.0157,1.0133,1.013,1.0122,1.0093,1.0092,1.0108,1.0107,1.0106,1.0106,0,0,0,0,0,0,0,1.0233,1.0228,1.0186,1.0192,1.0191,1.0188,1.0184,1.0165,1.0149,1.0167,1.0167,1.0163,1.0132,1.0124,1.0121,1.0091,1.0108,1.0107,1.0106,1.0105,1.0046,1.0046,0,0,0,0,0,0,1.0237,1.023,1.0187,1.0185,1.0212,1.0187,1.0183,1.0173,1.0149,1.0146,1.0163,1.0163,1.0127,1.0123,1.012,1.0096,1.0106,1.0105,1.0104,1.0047,1.0046,1.0046,0,0,0,0,0,0,1.0238,1.0233,1.0189,1.0207,1.0202,1.0185,1.0175,1.0172,1.0164,1.0146,1.0142,1.0157,1.0127,1.0122,1.0102,1.0095,1.0104,1.0102,1.0047,1.0046,1.0046,1.0049,0,0,0,0,0,0,1.024,1.0233,1.0226,1.0207,1.0201,1.0172,1.0174,1.0171,1.0161,1.0161,1.014,1.0137,1.0127,1.0105,1.01,1.0092,1.0101,1.0048,1.0047,1.0046,1.0049,1.0048,1.0048,0,0,0,0,0,1.0242,1.0228,1.0226,1.0221,1.0192,1.0172,1.0168,1.0158,1.016,1.0153,1.0141,1.0137,1.0097,1.0103,1.0097,1.0089,1.0048,1.0047,1.0046,1.005,1.0048,1.0048,0,0,0,0,0,0,1.0244,1.0225,1.0223,1.0202,1.0189,1.017,1.016,1.0157,1.0142,1.0142,1.0129,1.0125,1.0105,1.0095,1.0102,1.007,1.0072,1.007,1.0077,1.0076,1.0075,1.0077,1.0099,0,0,0,0,0,1.0243,1.0229,1.0213,1.0196,1.019,1.0176,1.0167,1.0161,1.0146,1.014,1.0127,1.0112,1.0096,1.0085,1.0069,1.0048,1.0043,1.004,1.0039,1.0038,1.0036,1.0025,1.0023,1.0043,1.0043,1.0043,0,0,1.0239,1.0227,1.0219,1.0197,1.0185,1.0171,1.0171,1.0156,1.0145,1.0137,1.0118,1.0108,1.009,1.0069,1.006,1.006,1.003,1.0037,1.0037,1.0035,1.0024,1.0022,1.002,1.0042,1.0042,1.0042,0,0,1.0225,1.0214,1.02,1.0189,1.0173,1.0165,1.0161,1.0143,1.0137,1.0117,1.0112,1.0098,1.0071,1.0059,1.0049,1.0032,1.0028,1.0027,1.0022,1.0011,1.001,1.0008,1.0002,1.0,1.0026,1.0026,1.0026,0,1.0222,1.0201,1.0192,1.0178,1.0168,1.0163,1.0148,1.0137,1.0116,1.0109,1.0111,1.0077,1.0065,1.0042,1.0038,1.003,1.0026,1.0029,1.0011,1.0009,1.0008,1.0002,1.0,1.0026,1.0026,1.0026,1.0026,0,1.0198,1.0183,1.0173,1.0155,1.0144,1.0129,1.0118,1.0109,1.0104,1.0095,1.0076,1.0061,1.0043,1.0037,1.0031,1.0013,1.0014,1.0014,1.0016,1.0006,1.0,0.9998,1.0026,1.0026,1.0026,1.0026,0,0,1.0182,1.0161,1.0157,1.0149,1.0132,1.012,1.0105,1.0088,1.008,1.0066,1.0053,1.0031,1.0031,1.002,1.0014,1.0004,0.9992,1.0005,1.0004,1.0002,0.9971,0.9971,0.9968,0.999,0.9989,0.9989,0.9972,0,1.0165,1.0139,1.0132,1.011,1.0097,1.0092,1.0079,1.0067,1.0059,1.0046,1.0037,1.0021,1.0022,1.0016,1.0006,0.9995,0.9985,0.9997,0.9977,0.9976,0.998,0.9965,0.9965,0.995,0.997,0.997,0.9969,0,1.0142,1.0129,1.0106,1.0091,1.0085,1.0074,1.0058,1.0046,1.0032,1.0027,1.0016,1.0011,0.9995,0.9999,0.9977,0.9985,0.9977,0.997,0.997,0.9966,0.9971,0.9961,0.9945,0.9942,0.9966,0.9966,0.9966,0,1.0132,1.0109,1.0093,1.0086,1.0069,1.0061,1.0053,1.004,1.0031,1.0017,1.0011,0.9995,0.9987,0.9975,0.9965,0.9969,0.9944,0.9947,0.9939,0.9939,0.9932,0.9933,0.9914,0.9928,0.9928,0.9929,0.9929,0,1.0114,1.0099,1.0088,1.0078,1.0062,1.0055,1.0039,1.0031,1.002,1.0007,1.0002,0.9991,0.998,0.9967,0.996,0.9942,0.9938,0.9933,0.9931,0.9933,0.9934,0.9927,0.9927,0.9928,0.9928,0.9928,0.9928,0,1.01,1.0092,1.0073,1.0059,1.0056,1.0044,1.0032,1.0022,1.0015,0.9999,0.9995,0.9983,0.9968,0.9958,0.9938,0.9933,0.9914,0.9913,0.9919,0.9918,0.9909,0.991,0.9884,0.988,0.9899,0.9899,0.9898,0,1.0088,1.0077,1.0062,1.0054,1.0047,1.0034,1.0025,1.0018,1.0009,0.9993,0.9985,0.9969,0.9956,0.9932,0.9921,0.9906,0.9904,0.9896,0.9901,0.9904,0.9903,0.9904,0.9902,0.9895,0.9894,0.9894,0.9894,0,1.0067,1.0064,1.0052,1.0039,1.0029,1.0018,1.0007,1.0,0.9991,0.9981,0.9966,0.9956,0.9937,0.9921,0.9906,0.9897,0.9894,0.9893,0.989,0.9891,0.9895,0.9893,0.9916,0.9893,0.9893,0.9893,0.9893,0.9893,1.0053,1.0044,1.0033,1.0019,1.0011,1.0001,0.9991,0.9983,0.9971,0.9955,0.9952,0.9936,0.9923,0.9902,0.9894,0.9881,0.9882,0.9878,0.9876,0.9875,0.9875,0.9898,0.9878,0.9878,0.9878,0.9878,0.9878,0,1.0032,1.0025,1.0013,0.9999,0.9989,0.9988,0.9977,0.9968,0.9954,0.9943,0.9932,0.9915,0.99,0.9889,0.9875,0.9867,0.9865,0.9863,0.9863,0.9861,0.9875,0.9879,0.9865,0.9865,0.9865,0.9865,0.9865,0.9865,1.002,1.0004,1.0,0.998,0.9973,0.9958,0.9951,0.9942,0.9934,0.9916,0.9904,0.9898,0.9887,0.9872,0.9859,0.9856,0.985,0.9849,0.9845,0.9858,0.986,0.9861,0.9865,0.9848,0.9848,0.9832,0.9832,0.9832]},{"header":{"parameterUnit":"m.s-1","parameterCategory":1,"la1":30.2991,"la2":30.254,"lo1":-89.0895,"lo2":-89.0444,"dy":0.0017,"dx":0.0017,"nx":28,"ny":28,"refTime":"2025-12-28T09:00:00:Z","depth":0,"parameterNumber":3,"parameterNumberName":"V-component_of_WINDS"},"data":[0,0,0,0,0,0,0,0,0,0,0,0,0,0,0,0,0,0,0,0,0,0,0,0,0,0,0,0,0,0,0,0,0,0,0,0,0,0,0,0,0,0,0,0,0,0,0,0,0,0,0,0,0,0,0,0,0,0,-8.6662,-8.6664,0,-8.685,-8.6852,-8.6855,-8.6768,-8.6763,-8.6759,-8.6754,-8.6941,-8.695,-8.6959,0,0,0,0,0,0,0,0,0,0,0,0,0,-8.6222,-8.623,-8.6662,-8.6664,-8.6667,-8.685,-8.6853,-8.6855,-8.6769,-8.6763,-8.6757,-8.6752,-8.6938,-8.6949,-8.696,0,0,0,0,0,0,0,0,0,0,0,0,0,-8.6412,-8.6233,-8.6661,-8.6646,-8.6646,-8.6849,-8.6853,-8.6856,-8.677,-8.6763,-8.6756,-8.6749,-8.6934,-8.6948,-8.6961,-8.7189,0,0,-8.7004,-8.701,0,0,0,0,0,0,0,0,-8.6401,-8.6428,-8.6646,-8.6647,-8.6648,-8.6779,-8.6766,-8.6967,-8.6772,-8.6723,-8.6754,-8.6746,-8.6892,-8.6909,-8.696,-8.7198,-8.7206,-8.7006,-8.7014,-8.702,-8.7024,0,0,0,0,0,0,0,-8.6388,-8.6419,-8.6736,-8.6649,-8.6651,-8.6627,-8.6647,-8.6804,-8.6844,-8.6727,-8.6721,-8.6745,-8.6891,-8.6946,-8.6963,-8.7209,-8.7005,-8.7018,-8.7026,-8.7032,-8.7643,-8.765,0,0,0,0,0,0,-8.6376,-8.6409,-8.673,-8.6742,-8.6505,-8.6641,-8.6663,-8.6744,-8.6843,-8.6851,-8.675,-8.674,-8.6926,-8.6947,-8.697,-8.7243,-8.702,-8.7033,-8.7041,-8.7635,-8.7644,-8.7653,0,0,0,0,0,0,-8.6367,-8.6406,-8.6723,-8.6574,-8.6613,-8.6656,-8.6748,-8.6751,-8.6806,-8.6861,-8.6867,-8.68,-8.6921,-8.695,-8.7136,-8.7248,-8.7039,-8.7052,-8.7626,-8.7638,-8.7649,-8.7792,0,0,0,0,0,0,-8.6355,-8.6403,-8.6491,-8.6577,-8.6621,-8.6888,-8.6755,-8.676,-8.6831,-8.6819,-8.6909,-8.6916,-8.6918,-8.7115,-8.715,-8.7264,-8.7063,-8.7616,-8.7631,-8.7645,-8.7777,-8.7807,-8.7832,0,0,0,0,0,-8.6339,-8.6522,-8.6496,-8.6535,-8.6733,-8.6894,-8.6919,-8.6919,-8.6841,-8.6929,-8.6964,-8.6914,-8.723,-8.7135,-8.7173,-8.7293,-8.7609,-8.7627,-8.7644,-8.7765,-8.7801,-8.7832,0,0,0,0,0,0,-8.6447,-8.6533,-8.6505,-8.6722,-8.6802,-8.688,-8.6991,-8.6958,-8.706,-8.7044,-8.7037,-8.7058,-8.7251,-8.729,-8.7182,-8.7519,-8.7407,-8.7433,-8.7486,-8.7521,-8.7548,-8.7535,-8.7075,0,0,0,0,0,-8.6496,-8.6622,-8.669,-8.6874,-8.6916,-8.6947,-8.7018,-8.7011,-8.7092,-8.7125,-8.7173,-8.7253,-8.737,-8.7448,-8.7558,-8.7782,-8.78,-8.7883,-8.7911,-8.7933,-8.7956,-8.8077,-8.8115,-8.7711,-8.771,-8.771,0,0,-8.6598,-8.6661,-8.6741,-8.6898,-8.6959,-8.7088,-8.6976,-8.7117,-8.7213,-8.7146,-8.7325,-8.7363,-8.7451,-8.7658,-8.775,-8.7696,-8.8072,-8.7956,-8.7973,-8.7984,-8.8099,-8.8138,-8.8172,-8.7723,-8.772,-8.7719,0,0,-8.6851,-8.6912,-8.7073,-8.7137,-8.7231,-8.7251,-8.729,-8.7373,-8.7397,-8.7577,-8.753,-8.7642,-8.7844,-8.7909,-8.7969,-8.8247,-8.8204,-8.8283,-8.8427,-8.8546,-8.8578,-8.8606,-8.8705,-8.8741,-8.8305,-8.8306,-8.8306,0,-8.6966,-8.7161,-8.7159,-8.7305,-8.7375,-8.7323,-8.7485,-8.7546,-8.7672,-8.772,-8.7658,-8.7912,-8.7967,-8.8188,-8.8256,-8.8306,-8.8349,-8.8273,-8.8573,-8.8602,-8.8628,-8.8723,-8.876,-8.8315,-8.8314,-8.8313,-8.8312,0,-8.7297,-8.7433,-8.7551,-8.7677,-8.776,-8.7913,-8.7933,-8.8017,-8.8003,-8.8028,-8.8212,-8.8277,-8.84,-8.8452,-8.8438,-8.8671,-8.8635,-8.8574,-8.8461,-8.8676,-8.8765,-8.8801,-8.8327,-8.8324,-8.8322,-8.8319,0,0,-8.7623,-8.7746,-8.779,-8.7846,-8.7947,-8.8051,-8.8201,-8.8325,-8.8397,-8.8485,-8.861,-8.8783,-8.8728,-8.8795,-8.8788,-8.8892,-8.9109,-8.8818,-8.882,-8.887,-8.9369,-8.9415,-8.9458,-8.9081,-8.9088,-8.9093,-8.9362,0,-8.7884,-8.815,-8.8153,-8.8397,-8.8522,-8.8474,-8.8605,-8.868,-8.8708,-8.8816,-8.8845,-8.8969,-8.8886,-8.8926,-8.9027,-8.9061,-8.9209,-8.9042,-8.9196,-8.9202,-8.9177,-8.9504,-8.9553,-8.9804,-8.9397,-8.9403,-8.9407,0,-8.8224,-8.8326,-8.8583,-8.8667,-8.8719,-8.8837,-8.895,-8.9055,-8.9139,-8.9152,-8.9228,-8.9206,-8.9357,-8.9241,-8.9448,-8.9335,-8.9398,-8.9424,-8.9434,-8.9448,-8.9318,-8.9528,-8.9883,-8.9921,-8.9462,-8.9457,-8.9453,0,-8.8437,-8.8638,-8.8818,-8.8868,-8.8969,-8.9053,-8.9099,-8.9176,-8.925,-8.9348,-8.9396,-8.951,-8.9572,-8.9659,-8.9668,-8.9582,-8.9877,-8.9761,-8.9891,-8.9891,-8.9955,-8.9951,-9.0327,-8.9996,-8.9995,-8.9994,-8.9993,0,-8.8728,-8.8887,-8.8915,-8.9026,-8.9203,-8.9204,-8.9378,-8.9416,-8.9485,-8.9601,-8.9565,-8.9675,-8.9679,-8.979,-8.9797,-8.9968,-8.9996,-9.001,-9.001,-9.0014,-9.0012,-9.0055,-9.0038,-9.0004,-9.0002,-9.0,-8.9998,0,-8.8996,-8.9021,-8.9214,-8.9296,-8.932,-8.9446,-8.9515,-8.962,-8.9644,-8.9792,-8.9826,-8.9864,-8.9993,-9.001,-9.016,-9.0165,-9.0371,-9.0352,-9.0344,-9.0341,-9.0471,-9.0459,-9.0887,-9.0943,-9.0575,-9.0579,-9.0581,0,-8.918,-8.9302,-8.9397,-8.9474,-8.9525,-8.9648,-8.9724,-8.9729,-8.9809,-8.9914,-9.0007,-9.0133,-9.0234,-9.0443,-9.0482,-9.0597,-9.0581,-9.0723,-9.0598,-9.0598,-9.0584,-9.0577,-9.0589,-9.0747,-9.0752,-9.0755,-9.0757,0,-8.9506,-8.9512,-8.9625,-8.9742,-8.9834,-8.9926,-9.0012,-9.0076,-9.0092,-9.0184,-9.0317,-9.0396,-9.0551,-9.0676,-9.079,-9.0834,-9.0799,-9.0797,-9.0833,-9.0838,-9.0829,-9.0836,-9.0411,-9.0787,-9.0784,-9.0782,-9.078,-9.0779,-8.9738,-8.9845,-8.9929,-9.0055,-9.0121,-9.0202,-9.0306,-9.0344,-9.0456,-9.0584,-9.0579,-9.0726,-9.0805,-9.0955,-9.1008,-9.1121,-9.1074,-9.1126,-9.1139,-9.1153,-9.1166,-9.0811,-9.1141,-9.114,-9.114,-9.1139,-9.1138,0,-9.0062,-9.0114,-9.023,-9.0354,-9.0453,-9.0413,-9.0506,-9.0591,-9.0722,-9.08,-9.0901,-9.1054,-9.1176,-9.1226,-9.1344,-9.1426,-9.1412,-9.1457,-9.1451,-9.1462,-9.1201,-9.1158,-9.1465,-9.1465,-9.1465,-9.1465,-9.1465,-9.1465,-9.0242,-9.0421,-9.0438,-9.0648,-9.0697,-9.0843,-9.09,-9.0975,-9.1038,-9.1211,-9.1313,-9.1345,-9.1412,-9.1535,-9.1645,-9.1656,-9.1701,-9.1753,-9.1757,-9.1513,-9.148,-9.1448,-9.1408,-9.1763,-9.1763,-9.2009,-9.2011,-9.2013]}]]